User: anonymous
Location: Hickory_CSC
(35.7330°N, 81.3330°W)
Time: 04:12:13
(UTC-04:00)
Language:

Cosmos 1356 Rocket - Orbit

View from above orbital plane
View from above orbital plane
View from above satellite
View from above satellite

Ground track
Ground track

The orbit data is extracted from the following two-line orbital elements,

1 13154U 82039B   14264.61664592  .00001329  00000-0  11403-3 0  4006
2 13154 081.1818 277.8334 0040544 302.9774 056.7548 14.96272546754126
Epoch (UTC): 21 September 2014 14:47:58
Eccentricity: 0.0040544
inclination: 81.1818°
perigee height: 550 km
apogee height: 606 km
right ascension of ascending node: 277.8334°
argument of perigee: 302.9774°
revolutions per day: 14.96272546
mean anomaly at epoch: 56.7548°
orbit number at epoch: 75412

The dashed part of the orbit path shows where the satellite is in the earth's shadow,  

DLR